TimeEDT,TemperatureF,Dew PointF,Humidity,Sea Level PressureIn,VisibilityMPH,Wind Direction,Wind SpeedMPH,Gust SpeedMPH,PrecipitationIn,Events,Conditions,WindDirDegrees,DateUTC
12:54 AM,60.1,57.9,93,30.15,7.0,Calm,Calm,-,N/A,,Clear,0,2012-09-28 04:54:00
1:54 AM,59.0,55.9,90,30.15,8.0,Calm,Calm,-,N/A,,Clear,0,2012-09-28 05:54:00
2:54 AM,57.9,55.9,93,30.13,10.0,Calm,Calm,-,N/A,,Clear,0,2012-09-28 06:54:00
3:54 AM,57.0,55.0,93,30.13,7.0,Calm,Calm,-,N/A,,Clear,0,2012-09-28 07:54:00
4:54 AM,55.0,53.1,93,30.12,3.0,WSW,3.5,-,N/A,,Clear,250,2012-09-28 08:54:00
5:02 AM,55.4,53.6,94,30.18,2.5,Calm,Calm,-,N/A,,Partly Cloudy,0,2012-09-28 09:02:00
5:06 AM,55.4,53.6,94,30.18,1.2,Calm,Calm,-,N/A,,Partly Cloudy,0,2012-09-28 09:06:00
5:11 AM,55.4,53.6,94,30.18,1.5,Calm,Calm,-,N/A,,Scattered Clouds,0,2012-09-28 09:11:00
5:16 AM,55.4,53.6,94,30.18,2.5,Calm,Calm,-,N/A,,Mostly Cloudy,0,2012-09-28 09:16:00
5:20 AM,55.4,53.6,94,30.18,1.8,Calm,Calm,-,N/A,,Mostly Cloudy,0,2012-09-28 09:20:00
5:25 AM,55.4,53.6,94,30.18,1.2,Calm,Calm,-,N/A,,Mostly Cloudy,0,2012-09-28 09:25:00
5:35 AM,53.6,53.6,100,30.19,0.5,Calm,Calm,-,N/A,Fog,Fog,0,2012-09-28 09:35:00
5:41 AM,55.4,53.6,94,30.18,0.8,Calm,Calm,-,N/A,,Mist,0,2012-09-28 09:41:00
5:51 AM,55.4,53.6,94,30.18,1.5,Calm,Calm,-,N/A,,Mostly Cloudy,0,2012-09-28 09:51:00
5:54 AM,55.0,54.0,96,30.12,3.0,Calm,Calm,-,N/A,,Mostly Cloudy,0,2012-09-28 09:54:00
6:03 AM,53.6,53.6,100,30.18,5.0,Calm,Calm,-,N/A,,Scattered Clouds,0,2012-09-28 10:03:00
6:12 AM,55.4,53.6,94,30.18,1.8,Calm,Calm,-,N/A,,Scattered Clouds,0,2012-09-28 10:12:00
6:21 AM,55.4,53.6,94,30.18,3.0,Calm,Calm,-,N/A,,Scattered Clouds,0,2012-09-28 10:21:00
6:54 AM,55.9,54.0,93,30.13,8.0,Calm,Calm,-,N/A,,Clear,0,2012-09-28 10:54:00
7:11 AM,55.4,53.6,94,30.18,2.0,Calm,Calm,-,N/A,,Clear,0,2012-09-28 11:11:00
7:54 AM,55.0,54.0,96,30.14,2.0,Calm,Calm,-,N/A,,Clear,0,2012-09-28 11:54:00
8:09 AM,55.4,53.6,94,30.18,2.0,Calm,Calm,-,N/A,,Partly Cloudy,0,2012-09-28 12:09:00
8:54 AM,57.0,55.0,93,30.15,2.0,Calm,Calm,-,N/A,,Partly Cloudy,0,2012-09-28 12:54:00
9:38 AM,62.6,57.2,82,30.19,8.0,Calm,Calm,-,N/A,,Clear,0,2012-09-28 13:38:00
9:54 AM,62.1,57.9,86,30.14,8.0,South,3.5,-,N/A,,Clear,180,2012-09-28 13:54:00
10:54 AM,68.0,60.1,76,30.14,10.0,South,4.6,-,N/A,,Clear,190,2012-09-28 14:54:00
11:54 AM,72.0,60.1,66,30.12,10.0,Calm,Calm,-,N/A,,Clear,0,2012-09-28 15:54:00
12:54 PM,75.0,57.9,55,30.10,10.0,South,3.5,-,N/A,,Clear,170,2012-09-28 16:54:00
1:54 PM,80.1,60.1,50,30.05,10.0,Calm,Calm,-,N/A,,Partly Cloudy,0,2012-09-28 17:54:00
2:54 PM,78.1,59.0,52,30.03,10.0,SW,4.6,-,N/A,,Overcast,220,2012-09-28 18:54:00
3:54 PM,75.0,61.0,62,30.02,10.0,North,12.7,-,0.00,,Mostly Cloudy,10,2012-09-28 19:54:00
4:54 PM,75.0,62.1,64,30.02,10.0,North,11.5,18.4,N/A,,Overcast,350,2012-09-28 20:54:00
5:54 PM,73.9,62.1,66,30.01,10.0,NNE,6.9,-,N/A,,Partly Cloudy,20,2012-09-28 21:54:00
6:54 PM,73.0,62.1,68,30.03,10.0,North,4.6,-,N/A,,Clear,350,2012-09-28 22:54:00
7:54 PM,70.0,62.1,76,30.04,10.0,NW,3.5,-,N/A,,Partly Cloudy,320,2012-09-28 23:54:00
8:54 PM,68.0,62.1,81,30.05,10.0,NNW,3.5,-,N/A,,Mostly Cloudy,340,2012-09-29 00:54:00
9:54 PM,66.9,61.0,81,30.05,10.0,Calm,Calm,-,N/A,,Overcast,0,2012-09-29 01:54:00
10:54 PM,64.0,61.0,90,30.05,10.0,Calm,Calm,-,N/A,,Clear,0,2012-09-29 02:54:00
11:54 PM,64.0,61.0,90,30.04,10.0,Calm,Calm,-,N/A,,Clear,0,2012-09-29 03:54:00